Regional Weather Roundup
Issued by NWS

Home | Current Version | Previous Version | Text Only | Print | Product List | Glossary Off
Versions: 1 2 3 4 5 6 7 8 9 10 11 12 13 14 15 16 17 18 19 20 21 22 23 24 25 26 27 28 29 30 31 32 33 34 35 36 37 38 39 40 41 42 43 44 45 46 47 48 49 50

000
ASUS45 KABQ 231510
RWRNM
NEW MEXICO REGIONAL WEATHER ROUNDUP
NATIONAL WEATHER SERVICE ALBUQUERQUE NM
800 AM MST THU FEB 23 2017

NOTE: "FAIR" MEANS FEW OR NO CLOUDS BELOW 12,000 FEET AGL WITH NO
       SIGNIFICANT WEATHER OR OBSTRUCTIONS TO VISION.

      THIS PRODUCT IS RELEASED AS TWO VERSIONS.  ONE VERSION NEAR
      THE TOP OF THE HOUR CONTAINING PRELIMINARY DATA FROM ALBUQUERQUE
      AND OTHER STATIONS.  A FINAL VERSION WITH ADDITIONAL DATA IS
      ISSUED ABOUT 10 MINUTES AFTER THE HOUR.

NMZ501-503-504-510>518-231600-
NORTHWEST PLATEAU/NORTHCENTRAL MOUNTAINS

CITY           SKY/WX    TMP DP  RH WIND       PRES   REMARKS
FARMINGTON     FAIR      36  27  69 W15       29.70R WCI  27
LOS ALAMOS     FAIR      42  19  40 SW25G37   29.67R
SANTA FE       FAIR      45  20  36 SW23G36   29.67R
TAOS             N/A     39  18  41 SW18      29.62S WCI  30
ANGEL FIRE     PTSUNNY   34  20  55 SW22G33   29.61S WCI  22

$$
NMZ402-403-502-505>509-231600-
WESTCENTRAL MOUNTAINS/SOUTHWEST MOUNTAINS

CITY           SKY/WX    TMP DP  RH WIND       PRES   REMARKS
GALLUP         FAIR      31  16  54 W16G31    29.78R WCI  20
GRANTS         FAIR      39  20  47 W18G35    29.75R WCI  30
SILVER CITY    FAIR      48  35  60 W9        29.86S

$$
NMZ407-409-411-412-231600-
SOUTHERN DESERTS

CITY           SKY/WX    TMP DP  RH WIND       PRES   REMARKS
DEMING         FAIR      52  38  58 CALM      29.85R
LAS CRUCES     FAIR      53  35  49 W21       29.80F
HOLLOMAN AFB   FAIR      58  33  39 S10G29    29.80R
ALAMOGORDO     FAIR      59  34  38 S14       29.78S
T OR C         FAIR      57  28  33 W16       29.75R

$$
NMZ519>523-231600-
CENTRAL VALLEYS/CENTRAL HIGHLANDS

CITY           SKY/WX    TMP DP  RH WIND       PRES   REMARKS
ALBUQUERQUE    FAIR      47  22  37 W7        29.69R
DOUBLE EAGLE   MOSUNNY   46  19  34 SW29G39   29.68R
MORIARTY ARPT  FAIR      52  17  24 SW28G43   29.67S
CLINES CORNERS FAIR      44  22  41 SW30G39   29.67S
BELEN          FAIR      53  17  24 SW31G38   29.69R
SOCORRO        FAIR      57  20  23 SW18G31   29.72R

$$
NMZ524>526-539-540-231600-
SOUTHCENTRAL MOUNTAINS

CITY           SKY/WX    TMP DP  RH WIND       PRES   REMARKS
RUIDOSO        FAIR      48  30  49 SW29G38   29.79R

$$
NMZ527>531-231600-
NORTHEAST HIGHLANDS/NORTHEAST PLAINS

CITY           SKY/WX    TMP DP  RH WIND       PRES   REMARKS
RATON          FAIR      46  21  37 SW21G28   29.53F
CLAYTON        FAIR      52  32  46 SW18G28   29.54F

$$
NMZ532>537-231600-
EASTCENTRAL PLAINS

CITY           SKY/WX    TMP DP  RH WIND       PRES   REMARKS
TUCUMCARI      FAIR      57  33  40 SW13      29.58F
CANNON AFB     FAIR      55  32  41 W10       29.65R
CLOVIS AIRPORT FAIR      54  34  47 W9        29.66R

$$
NMZ028-029-538-231600-
SOUTHEAST PLAINS

CITY           SKY/WX    TMP DP  RH WIND       PRES   REMARKS
ROSWELL        FAIR      65  33  30 SW12        N/A
ARTESIA        FAIR      64  32  29 SW24G31   29.68R
CARLSBAD       FAIR      72  28  19 SW18G25   29.67S
HOBBS          SUNNY     45  27  49 S8        29.71S


$$




USA.gov is the U.S. government's official web portal to all federal, state and local government web resources and services.